TIME,DELAY(SENSOR),PRES,T(CTD),SAL,OXYGEN,RAWTEMP,T(OPTODE),TCPHASE,FLUOR,BETA(BETA700),BETA(BETA412),BETA(BETA440),CDOM,C(CSC),ED(ED411.90),ED(ED443.80),ED(ED489.40),ED(ED554.70),LU(LU412.20),LU(LU443.80),LU(LU489.40),LU(LU555.00),COMP,TILTX,TILTX(TILTY),CHECK
1342884724,5805,493.0299987792969000,17.3841991424560550,36.4462013244628900,231.6914062500000000,175.7489013671875000,17.3795604705810550,31.1712608337402340,51,102,99,80,68,14248,2146952512,2147515163,2147267520,2147468032,2147086235,2146950208,2147656713,2147121078,3418,-2,8,62225
1342884837,5809,482.5400085449219000,17.4465999603271500,36.4558982849121100,231.6119995117187500,173.7798004150390600,17.4389591217041000,31.1484203338623050,50,100,98,80,69,14252,2146954889,2147513481,2147266322,2147465014,2147086473,2146952868,2147655908,2147121389,59,-2,8,21887
1342884958,5805,471.4599914550781000,17.5104007720947270,36.4662017822265600,231.6761016845703000,171.6087951660156200,17.5044708251953120,31.1161403656005860,50,102,98,81,67,14248,2146952731,2147517467,2147269659,2147465005,2147085659,2146955922,2147656557,2147124068,3003,-2,8,23819
1342885079,5802,460.3699951171875000,17.5638008117675780,36.4774017333984400,232.5196075439453000,169.6289978027343800,17.5642108917236330,31.0477199554443360,50,102,98,80,68,14249,2146955730,2147516891,2147268196,2147465289,2147084681,2146959259,2147655780,2147118454,2811,-2,8,47176
1342885202,5805,449.0700073242187500,17.6431999206542970,36.4939994812011700,234.3522949218750000,167.0397033691406200,17.6423397064209000,30.9234199523925780,50,101,99,81,67,14248,2146953773,2147515108,2147267620,2147464987,2147086738,2146951634,2147658386,2147118144,2945,-2,8,17064
1342885323,5806,437.8299865722656000,17.7119998931884770,36.5069007873535160,235.6938934326172000,164.9595031738281200,17.7051200866699220,30.8305606842041000,50,101,98,79,67,14248,2146952859,2147511762,2147266825,2147461174,2147086482,2146955392,2147655149,2147119716,3012,-3,8,59251
1342885436,5806,427.2200012207031000,17.7611007690429700,36.5158004760742200,235.5581054687500000,163.1477050781250000,17.7598094940185550,30.8127803802490230,51,100,97,80,66,14249,2146953142,2147515236,2147264640,2147462363,2147085778,2146951844,2147654363,2147118326,3320,-2,8,38210
1342885557,5805,415.8599853515625000,17.8290996551513670,36.5270004272460940,236.6163940429687500,161.0028991699218800,17.8245601654052730,30.7332191467285160,50,100,99,80,68,14249,2146956470,2147515245,2147267520,2147461897,2147084818,2146955785,2147652790,2147118765,358,-2,8,15837
1342885667,5803,405.5599975585937500,17.8502006530761720,36.5317993164062500,237.3605957031250000,160.3231048583984400,17.8450794219970700,30.6885299682617200,51,100,98,79,67,14247,2146954916,2147513472,2147267117,2147463067,2147089645,2146955428,2147651849,2147120457,933,-2,8,45116
1342885791,5806,394.1300048828125000,17.8831996917724600,36.5363006591796900,237.2462005615234400,159.2395935058593800,17.8777904510498050,30.6797294616699220,50,101,97,80,67,14244,2146954889,2147515254,2147267136,2147459940,2147088265,2146960283,2147647936,2147120493,979,-2,8,17863
1342885912,5806,383.2799987792969000,17.9181003570556640,36.5410003662109400,237.2906951904297000,158.0391998291015600,17.9140396118164060,30.6612205505371100,50,100,97,79,67,14245,2146953801,2147513618,2147266706,2147462253,2147090834,2146951908,2147650386,2147120137,1028,-2,8,40842
1342886036,5807,372.3299865722656000,17.9698009490966800,36.5486984252929700,236.9449005126953000,156.3079071044922000,17.9663200378417970,30.6547298431396500,50,103,98,81,67,14245,2146951396,2147518299,2147270930,2147462491,2147087387,2146955337,2147649362,2147118674,485,-2,8,8673
1342886157,5807,361.7999877929687500,18.0186004638671880,36.5551986694335940,237.5348968505859400,154.7631988525390600,18.0129604339599600,30.6060295104980470,50,100,98,81,68,14244,2146952374,2147517485,2147268900,2147462555,2147088576,2146956589,2147651821,2147118262,341,-2,8,31224
1342886289,5810,350.4800109863281000,18.0657997131347660,36.5624008178710940,237.0989074707031200,153.1893005371093800,18.0604991912841800,30.6058006286621100,50,101,99,80,67,14243,2146950939,2147517540,2147266157,2147462454,2147086546,2146958363,2147650989,2147122971,104,-2,8,42377
1342886423,5804,338.9899902343750000,18.1012001037597660,36.5640983581543000,235.9497985839843800,151.8715972900390600,18.1002998352050780,30.6431694030761720,50,102,100,81,68,14242,2146950976,2147515949,2147272246,2147460187,2147086802,2146956617,2147654217,2147115712,583,-2,7,29272
1342886544,5804,328.7799987792969000,18.1508998870849600,36.5700988769531250,235.1139068603515600,150.3206939697265600,18.1471500396728500,30.6624202728271500,51,103,102,81,66,14238,2146953481,2147518546,2147274752,2147461897,2147086089,2146957705,2147658066,2147119277,784,-2,8,10035
1342886679,5807,317.5100097656250000,18.2091007232666000,36.5763015747070300,234.3659973144531200,148.4396972656250000,18.2039794921875000,30.6734104156494140,50,104,99,80,68,14238,2146951030,2147517705,2147279478,2147462006,2147085814,2146962066,2147657709,2147121453,303,-2,8,37475
1342886811,5803,306.5299987792969000,18.2707004547119140,36.5820007324218750,233.5612030029297000,146.4069061279297000,18.2653999328613280,30.6852893829345700,51,110,99,82,67,14238,2146953664,2147518976,2147280256,2147459629,2147088557,2146959981,2147658267,2147119259,392,-2,8,13138
1342886946,5806,295.5100097656250000,18.3649997711181640,36.5899009704589840,231.9788055419922000,143.1593933105468800,18.3635406494140620,30.7187995910644530,51,103,103,82,68,14236,2146952420,2147521243,2147296338,2147459264,2147088877,2146964050,2147663990,2147121472,1468,-2,8,52251
1342887089,5804,284.2999877929687500,18.4414997100830080,36.5962982177734400,230.6602935791015600,140.5731048583984400,18.4417190551757800,30.7489395141601560,50,106,99,84,66,14233,2146956041,2147516388,2147267894,2147461504,2147086198,2146961216,2147649792,2147120822,1242,-2,8,27875
1342887232,5801,273.4599914550781000,18.5314998626709000,36.6013984680175800,229.3493957519531200,137.6687927246093800,18.5295295715332030,30.7746200561523440,50,103,99,82,68,14234,2146952393,2147516937,2147272914,2147460571,2147086317,2146959561,2147654308,2147124443,1332,-2,8,45276
1342887365,5808,261.9200134277344000,18.6354007720947270,36.6053009033203100,228.2628021240234400,134.1784973144531200,18.6350803375244140,30.7818107604980470,50,103,101,82,68,14235,2146951917,2147520621,2147282998,2147458358,2147086500,2146960768,2147656539,2147124434,1789,-2,7,24080
1342887475,5808,251.4400024414062500,18.8033008575439450,36.6100997924804700,228.6952972412109400,128.8354034423828000,18.7967090606689450,30.6894092559814450,51,104,104,82,67,14233,2146953152,2147519744,2147282998,2147459748,2147076699,2146964196,2147659867,2147125037,1769,-2,8,59830
1342887599,5808,240.0899963378906200,18.8777999877929700,36.6049003601074200,231.3094024658203000,126.3356018066406200,18.8723602294921880,30.5278491973876950,51,104,101,82,67,14236,2146954340,2147561965,2147409225,2147458258,2147090733,2146989613,2147733220,2147125165,1801,-2,8,29330
1342887720,5805,229.5099945068359400,19.0041007995605470,36.6001014709472660,234.3247985839843800,122.1418991088867200,18.9993000030517580,30.3266201019287100,51,103,111,81,67,14231,2146953910,2147525906,2147295890,2147455789,2147083291,2146968246,2147662290,2147125814,1223,-2,8,49632
1342887852,5808,218.1199951171875000,19.1025009155273440,36.5890007019043000,241.5821075439453000,118.8621978759765600,19.0986194610595700,29.9424400329589840,50,105,101,82,66,14232,2146955776,2147560484,2147389202,2147456384,2147086134,2146989376,2147719177,2147131044,1777,-2,8,18320
1342887975,5804,207.4499969482422000,19.1870002746582030,36.5838012695312500,247.9873962402343800,116.0843963623046900,19.1827507019042970,29.6150703430175780,51,106,135,84,66,14229,2146961179,2147621412,2147563730,2147456274,2147090697,2147034121,2147812617,2147133385,2053,-2,8,26876
1342888085,5802,197.6699981689453000,19.2397003173828120,36.5820999145507800,251.5301971435547000,114.1054000854492200,19.2427005767822270,29.4321899414062500,51,106,106,81,65,14228,2146953517,2147543908,2147330477,2147454674,2147090139,2146978038,2147680256,2147126336,2618,-2,8,47978
1342888140,5806,192.6600036621093800,19.2821006774902340,36.5857009887695300,252.6562957763672000,112.9214019775390600,19.2785797119140620,29.3677692413330080,53,108,101,82,65,14229,2146959149,2147561837,2147378294,2147452617,2147093650,2146993801,2147707840,2147126829,2643,-2,8,8426
1342888195,5809,187.6300048828125000,19.3220996856689450,36.5895004272460940,253.5520019531250000,111.5952987670898400,19.3187694549560550,29.3116397857666000,55,114,101,83,64,14223,2146960182,2147571209,2147401115,2147455981,2147078774,2147004169,2147723172,2147129929,2719,-2,8,38167
1342888270,5807,180.9900054931640600,19.3493995666503900,36.5938987731933600,254.8013000488281200,110.7558975219726600,19.3442096710205080,29.2464504241943360,59,115,99,82,65,14222,2146962989,2147590829,2147450697,2147452891,2147089024,2147018788,2147751204,2147128301,2973,-2,8,33035
1342888325,5802,176.3899993896484400,19.3477001190185550,36.5882987976074200,255.1925048828125000,110.7994003295898400,19.3428897857666000,29.2302398681640620,61,115,101,83,63,14214,2146971419,2147657344,2147610422,2147456704,2147089024,2147067017,2147843172,2147136777,3132,-2,8,54077
1342888380,5807,171.8300018310547000,19.3446998596191400,36.5833015441894500,255.1575012207031200,110.8396987915039000,19.3416690826416000,29.2322196960449220,63,125,100,83,65,14207,2146965750,2147608758,2147483328,2147457618,2147095094,2147034258,2147773376,2147131145,3372,-2,8,58516
1342888435,5805,167.2500000000000000,19.3537998199462900,36.5830001831054700,255.0597991943359400,110.4906005859375000,19.3522491455078120,29.2320499420166000,67,119,104,83,65,14204,2146967067,2147617252,2147498450,2147452315,2147086235,2147041289,2147777133,2147131657,164,-2,8,44535
1342888490,5806,162.7299957275390600,19.3717994689941400,36.5836982727050800,255.0254974365234400,110.0766983032226600,19.3647899627685550,29.2281799316406250,73,122,100,82,63,14192,2146969965,2147619364,2147492562,2147455652,2147094107,2147034770,2147774217,2147134400,30,-2,8,36517
1342888545,5806,158.1699981689453000,19.3654003143310550,36.5777015686035160,254.9902038574218800,109.9424972534179700,19.3688602447509770,29.2278995513916000,76,123,102,83,64,14189,2146967396,2147606043,2147463579,2147453421,2147090514,2147023926,2147754733,2147131218,259,-2,8,24358
1342888622,5806,152.3099975585937500,19.3686008453369140,36.5736007690429700,254.7093048095703000,110.1026000976562500,19.3640098571777340,29.2419795989990230,85,123,102,83,64,14187,2146974720,2147630162,2147517549,2147456246,2147093458,2147038464,2147780370,2147131446,186,-2,8,64651
1342888677,5806,148.5299987792968800,19.3710002899169920,36.5696983337402340,254.5099029541015600,109.9888992309570300,19.3674507141113280,29.2492904663085940,92,124,102,85,64,14181,2146984018,2147672137,2147590619,2147456027,2147102226,2147052233,2147818486,2147133494,420,-2,8,49710
1342888732,5807,144.8000030517578000,19.3812007904052730,36.5690994262695300,254.2337951660156200,109.7257995605468800,19.3754291534423830,29.2578792572021500,97,128,102,85,65,14175,2146987437,2147696228,2147633536,2147457645,2147104832,2147071661,2147834834,2147136950,511,-2,8,10480
1342888787,5806,141.1399993896484400,19.3892002105712900,36.5707015991210940,254.2747955322265600,109.3904037475586000,19.3855895996093750,29.2517890930175780,100,128,103,84,65,14170,2146992694,2147699501,2147639460,2147457344,2147106304,2147072612,2147831862,2147135890,449,-2,8,42928
1342888853,5806,136.8600006103515600,19.4283008575439450,36.5782012939453100,254.4494934082031200,108.0811996459961000,19.4252796173095700,29.2273197174072270,105,129,103,84,66,14172,2147053558,2147956809,2148169545,2147461193,2147136292,2147215085,2148083163,2147154102,141,-2,8,61205
1342888931,5804,132.4100036621093800,19.4526004791259770,36.5792007446289060,255.0516967773437500,107.3421020507812500,19.4476890563964840,29.1917705535888670,118,132,102,84,65,14154,2147090724,2148075995,2148376182,2147460891,2147148123,2147263158,2148160027,2147158765,3578,-2,8,36797
1342889019,5807,128.5200042724609400,19.4824008941650400,36.5819015502929700,255.4188995361328000,106.2966003417968800,19.4793891906738280,29.1626701354980470,125,130,104,85,65,14151,2147156278,2148328512,2148826240,2147469979,2147171392,2147378678,2148341394,2147167853,427,-2,8,55145
1342889107,5807,124.9800033569336000,19.5056991577148440,36.5845985412597660,256.0946960449219000,105.6016998291015600,19.5004596710205080,29.1246891021728500,138,133,103,85,65,14138,2147146377,2148246756,2148631433,2147464018,2147166893,2147321846,2148225353,2147164662,22,-2,8,55557
1342889220,5805,120.5899963378906200,19.5352001190185550,36.5838012695312500,257.2774047851562500,104.5923995971679700,19.5310707092285160,29.0610694885253900,137,129,104,84,65,14144,2147172132,2148312868,2148696429,2147468845,2147173961,2147331940,2148235108,2147163364,107,-3,8,54667
1342889319,5804,117.1399993896484400,19.5718002319335940,36.5847015380859400,258.6791992187500000,103.4834976196289000,19.5646991729736330,28.9873409271240230,144,129,102,84,66,14133,2147421019,2149140132,2150115181,2147488228,2147274313,2147673261,2148765522,2147205549,2980,-2,8,33678
1342889451,5804,112.9899978637695300,19.5830993652343750,36.5840988159179700,260.7320861816406000,103.0207977294921900,19.5787391662597660,28.8947105407714840,138,127,102,84,66,14129,2147264676,2148512969,2148904539,2147471396,2147205677,2147384438,2148281234,2147169737,2790,-2,8,40408
1342889571,5807,108.5999984741211000,19.6501007080078120,36.5877990722656250,262.9247131347656000,100.7655029296875000,19.6471500396728500,28.7744407653808600,133,126,104,85,67,14124,2148579300,2152467510,2155248502,2147578002,2147698880,2148958482,2150636324,2147360402,2713,-2,8,1703
1342889659,5802,104.8300018310546900,19.7159004211425780,36.5876007080078100,265.3821105957031000,98.7937698364257800,19.7069797515869140,28.6480197906494140,117,124,102,84,66,14118,2147667474,2149516763,2150172196,2147494710,2147346953,2147769161,2148748589,2147216932,2396,-3,8,64547
1342889758,5805,100.3899993896484400,19.7437000274658200,36.5817985534668000,267.6236877441406000,97.8034973144531200,19.7370300292968750,28.5439701080322270,117,125,104,84,66,14107,2147864420,2149905417,2150542144,2147504402,2147428809,2147921005,2148897810,2147233481,2381,-2,8,34678
1342889814,5804,97.9100036621093800,19.8108005523681640,36.5890007019043000,269.3464050292969000,95.4807281494140600,19.8075294494628900,28.4447097778320300,118,126,104,86,65,14109,2149837065,2155018258,2157787666,2147662528,2148182418,2149991040,2151678134,2147476416,2294,-3,8,61554
1342889871,5806,95.3899993896484400,19.8831996917724600,36.5900993347168000,270.8757934570312500,93.3082275390625000,19.8734893798828120,28.3560905456542970,103,128,104,86,65,14102,2148572004,2151482925,2152443675,2147546377,2147711058,2148607433,2149691629,2147298788,1872,-3,8,47247
1342889926,5802,93.0400009155273400,19.9377002716064450,36.5821990966796900,272.0256042480469000,91.4495468139648400,19.9299297332763670,28.2866706848144530,108,127,105,86,65,14103,2149055104,2152536000,2153711369,2147580187,2147913462,2149076900,2150220836,2147351634,1477,-2,8,43992
1342889981,5805,90.6800003051757800,19.9708995819091800,36.5843009948730500,273.4356079101562500,90.5294189453125000,19.9578800201416000,28.2190608978271500,100,132,106,86,65,14080,2150174921,2154942061,2156603145,2147652617,2148372278,2150151341,2151459062,2147459218,1247,-2,8,64086
1342890036,5805,88.2200012207031200,19.9780998229980470,36.5862998962402340,274.4200134277344000,89.9947967529296900,19.9741191864013670,28.1736793518066400,99,131,106,87,64,14083,2151766729,2158226112,2160430738,2147758372,2149040950,2151649078,2153088996,2147602989,1406,-2,8,63278
1342890091,5803,85.6200027465820300,20.0541992187500000,36.5857009887695300,274.7239074707031000,87.6438980102539000,20.0455398559570300,28.1320991516113280,96,134,106,86,61,14082,2152791643,2160042861,2162277549,2147825691,2149499894,2152534500,2153950820,2147686153,1577,-2,8,33461
1342890146,5805,83.0400009155273400,20.0753002166748050,36.5870018005371100,275.3937988281250000,86.5926589965820300,20.0774803161621100,28.0927391052246100,94,132,104,86,65,14076,2154868964,2164052672,2166875666,2148015552,2150452809,2154581952,2156215424,2147898889,1363,-2,9,29550
1342890203,5805,80.4899978637695300,20.1879997253417970,36.6001014709472660,275.7586059570312500,84.0807571411132800,20.1538200378417970,28.0472297668457030,92,129,106,85,62,14083,2153564178,2160690870,2162349778,2147908626,2149898907,2153033846,2154162998,2147722870,1293,-2,8,6793
1342890258,5803,78.1699981689453100,20.2544002532959000,36.6096992492675800,275.4295043945312500,81.1442031860351600,20.2430992126464840,28.0233097076416000,96,131,106,87,64,14078,2152039149,2157379428,2158288420,2147788242,2149284388,2151592045,2152485430,2147570706,1457,-2,8,3474
1342890313,5804,75.9899978637695300,20.3526000976562500,36.6113014221191400,275.5841064453125000,77.9143600463867200,20.3413295745849600,27.9769992828369140,90,131,107,86,62,14080,2152987547,2158921261,2159877586,2147878893,2149735424,2152398363,2153233828,2147644955,1590,-2,8,4697
1342890368,5809,74.1500015258789000,20.3859996795654300,36.6097984313964840,276.6872863769531000,76.8146362304687500,20.3747901916503900,27.9204101562500000,89,131,106,86,63,14065,2153957613,2160581549,2161571538,2147944448,2150221705,2153318336,2154095926,2147727661,1717,-2,8,40418
1342890445,5804,72.0800018310546900,20.4302997589111330,36.6059989929199200,277.9941101074219000,75.2789382934570300,20.4215106964111330,27.8507003784179700,87,132,107,88,64,14061,2155302464,2162376192,2163075538,2148039844,2150887872,2154308352,2154836580,2147806025,2257,-2,8,6204
1342890534,5804,69.5500030517578100,20.5839996337890620,36.6236991882324200,278.3760986328125000,69.4775085449218800,20.5981197357177730,27.7639808654785160,83,132,107,87,62,14046,2154134308,2159848310,2159978916,2147927561,2150466633,2153286537,2153604050,2147688128,3061,-3,8,56365
1342890589,5805,67.3700027465820300,20.6914997100830080,36.6119995117187500,278.0057983398437500,66.7127609252929700,20.6823291778564450,27.7439498901367200,82,134,106,87,61,14055,2155737188,2162055552,2162057554,2148089261,2151340854,2154648722,2154725467,2147804361,3070,-3,8,40307
1342890644,5807,65.3899993896484400,20.6938991546630860,36.5866012573242200,279.8269042968750000,66.2676391601562500,20.6958904266357420,27.6685504913330080,80,131,107,89,62,14053,2158164022,2165526893,2165258779,2148258166,2152657901,2156728411,2156453156,2147971136,2689,-2,8,2412
1342890699,5805,63.6899986267089840,20.8001003265380860,36.5946006774902340,280.6075134277344000,63.2975387573242200,20.7863903045654300,27.6020393371582030,76,133,107,88,62,14045,2158020214,2164756379,2164088786,2148210139,2152728493,2156568795,2156063003,2147932352,2429,-2,8,48771
1342890754,5806,62.1500015258789060,20.8822002410888670,36.5909996032714840,281.2789916992187500,60.3840904235839840,20.8752002716064450,27.5406303405761720,77,132,109,88,62,14036,2159392457,2166447168,2165589010,2148374290,2153558134,2157701842,2156915382,2148031780,2419,-2,8,25406
1342890844,5804,59.5699996948242200,21.1422996520996100,36.6027984619140600,281.5075988769531000,50.8939285278320300,21.1647491455078120,27.4153099060058600,74,138,108,88,61,14030,2184625033,2202995510,2201411410,2150942838,2167627044,2179798134,2175764041,2150008374,2794,-2,9,5098
1342890899,5806,57.4099998474121100,21.3390007019042970,36.5951004028320300,281.7275085449219000,44.6071510314941400,21.3567905426025400,27.3299102783203120,72,135,109,88,60,14026,2204721828,2230672384,2228192950,2153330066,2179865014,2197965531,2190630226,2151609426,2817,-3,9,34083
1342890954,5805,55.3600006103515600,21.5214004516601560,36.5880012512207000,281.9094848632812500,40.5875892639160160,21.4796695709228500,27.2738895416259770,75,140,109,88,61,14019,2251143762,2297190125,2296302665,2160388397,2207569746,2240422006,2227297398,2155722889,3219,-2,8,39396
1342891095,5807,52.5400009155273440,21.9041996002197270,36.5651016235351560,281.4108886718750000,27.4715499877929700,21.8811607360839840,27.1329002380371100,75,138,108,87,61,13999,2250988617,2292529142,2290181677,2161399890,2209638710,2239677741,2224750948,2155863661,2732,-3,8,26165
1342891151,5804,51.8899993896484400,22.0228004455566400,36.5625000000000000,281.1091003417969000,23.5401992797851560,22.0016708374023440,27.0963191986084000,72,136,107,90,59,14006,2261629485,2307266102,2305138066,2162910427,2217041892,2250231597,2233198070,2156820141,2345,-2,9,57052
1342891232,5805,49.7500000000000000,22.0839004516601560,36.5488014221191400,280.6116027832031000,20.8291492462158200,22.0848102569580080,27.0821399688720700,69,134,109,90,61,14008,2270035099,2315157257,2311812077,2165549129,2225822857,2259610569,2239178084,2157809380,2862,-2,9,13818
1342891301,5804,47.8699989318847660,22.3437995910644530,36.5344009399414060,278.9953918457031000,11.6396398544311520,22.3669490814209000,27.0316696166992200,65,134,108,89,62,14003,2193655725,2207268041,2201771346,2152653376,2178472512,2189279195,2179689051,2150715867,2388,-3,8,2291
1342891418,5801,45.9799995422363300,22.5158996582031250,36.5203018188476560,277.9426879882812500,6.7705478668212890,22.5166206359863280,27.0124492645263670,68,133,109,86,63,14003,2222246738,2245434322,2239331858,2157452352,2198482578,2216762441,2201770514,2153458203,1536,-2,7,25302
1342891570,5809,43.8699989318847660,22.8402004241943360,36.4734001159668000,275.5787963867187500,-2.6909890174865723,22.8078403472900400,26.9881706237792970,64,134,107,90,59,14006,2208403081,2224617252,2218090011,2155426514,2191732946,2204936137,2190895213,2152207478,1736,-2,8,39439
1342891818,5805,41.7599983215332000,22.9381999969482420,36.4519996643066400,273.9641113281250000,-6.5277280807495120,22.9260807037353500,27.0037097930908200,61,133,108,87,57,14011,2221807277,2240795858,2234435318,2159221942,2205659209,2222453741,2204217691,2154054930,423,-1,8,3689
1342891887,5806,39.6599998474121100,23.3139991760253900,36.4165992736816400,272.3193054199219000,-15.5701103210449220,23.2050991058349600,26.9577999114990230,61,133,108,90,60,14019,2211059666,2225515712,2218938166,2157290861,2198654016,2210889938,2193942034,2152846829,784,-2,8,19846
1342892098,5808,37.9399986267089840,23.6310005187988280,36.4056015014648440,268.8518066406250000,-28.4981002807617200,23.6048793792724600,26.9364891052246100,62,132,109,89,60,14019,2202091858,2213621805,2207625609,2156157522,2192831030,2202630592,2187487606,2152115428,1083,-2,8,14567
1342892203,5806,35.7099990844726560,23.9848995208740230,36.3764991760253900,266.1306152343750000,-39.1219100952148440,23.9342098236084000,26.9151401519775400,61,134,107,88,59,14013,2197392740,2207354212,2201973430,2156285979,2191174811,2199465408,2184732480,2151938532,567,-2,9,39990
1342892403,5808,33.9099998474121100,24.2000007629394530,36.3714981079101560,262.7199096679687500,-47.9261894226074200,24.2077102661132800,26.9443206787109380,60,136,108,87,60,14035,2216394084,2229103853,2222038701,2160612699,2209683712,2220365924,2199186596,2154065051,1757,-3,8,1784
1342892604,5805,31.9599990844726560,24.6797008514404300,36.2947998046875000,258.1600036621094000,-62.6124496459960940,24.6651401519775400,26.9510002136230470,60,131,106,87,58,14026,2193186660,2200801298,2195165952,2155822162,2191401901,2197697883,2182249673,2151704905,1291,-3,9,55522
1342892744,5804,29.7999992370605470,25.2120990753173830,36.2848014831543000,255.2079010009765600,-77.9936294555664000,25.1458892822265620,26.8858509063720700,59,130,107,88,59,14036,2221731392,2234187510,2227193947,2164278884,2219093202,2228914313,2204318820,2155251776,1129,-3,8,26358